| time (UTC) | temp F | wind direction | speed knots | gust knots | rain 1hr in | rain 24hr in | rain mn in | humidity % | barometer mb |
| 20260504082002 | 50 | 171 | 0.9 | 1.7 | 0.00 | 0.00 | 0.00 | 61 | 1016.4 |
| 20260504081502 | 50 | 171 | 0.9 | 1.7 | 0.00 | 0.00 | 0.00 | 61 | 1016.4 |
| 20260504081001 | 50 | 171 | 0.9 | 1.7 | 0.00 | 0.00 | 0.00 | 61 | 1016.4 |
| 20260504080459 | 50 | 171 | 0.9 | 1.7 | 0.00 | 0.00 | 0.00 | 61 | 1016.4 |
| 20260504050423 | 50 | 26 | 0.9 | 1.7 | 0.00 | 0.00 | 0.00 | 60 | 1016.7 |
| 20260504050002 | 49 | 0.0 | 0.9 | 0.00 | 0.00 | 0.00 | 60 | 1016.7 | |
| 20260504045421 | 49 | 0.0 | 0.9 | 0.00 | 0.00 | 0.00 | 60 | 1016.7 | |
| 20260504044920 | 49 | 0.0 | 0.9 | 0.00 | 0.00 | 0.00 | 60 | 1016.4 | |
| 20260504044419 | 49 | 0.0 | 0.9 | 0.00 | 0.00 | 0.00 | 60 | 1016.4 | |
| 20260504043918 | 48 | 90 | 0.9 | 1.7 | 0.00 | 0.00 | 0.00 | 63 | 1016.3 |
| 20260504043418 | 48 | 90 | 0.9 | 1.7 | 0.00 | 0.00 | 0.00 | 63 | 1016.3 |
| 20260504042915 | 47 | 90 | 0.9 | 0.9 | 0.00 | 0.00 | 0.00 | 66 | 1016.4 |
| 20260504042415 | 47 | 90 | 0.9 | 0.9 | 0.00 | 0.00 | 0.00 | 66 | 1016.4 |
| 20260504041914 | 46 | 315 | 0.9 | 0.9 | 0.00 | 0.00 | 0.00 | 66 | 1016.5 |
| 20260504041414 | 46 | 315 | 0.9 | 0.9 | 0.00 | 0.00 | 0.00 | 66 | 1016.5 |
| 20260504040913 | 46 | 165 | 0.9 | 0.9 | 0.00 | 0.00 | 0.00 | 66 | 1016.6 |
| 20260504040411 | 46 | 165 | 0.9 | 0.9 | 0.00 | 0.00 | 0.00 | 66 | 1016.6 |
| 20260504035951 | 46 | 173 | 0.9 | 1.7 | 0.00 | 0.00 | 0.00 | 64 | 1016.5 |
| 20260504035449 | 46 | 173 | 0.9 | 1.7 | 0.00 | 0.00 | 0.00 | 64 | 1016.5 |
| 20260504034909 | 46 | 0.0 | 0.9 | 0.00 | 0.00 | 0.00 | 63 | 1016.6 | |
| 20260504034407 | 46 | 0.0 | 0.9 | 0.00 | 0.00 | 0.00 | 63 | 1016.6 | |
| 20260504033928 | 46 | 171 | 0.9 | 0.9 | 0.00 | 0.00 | 0.00 | 63 | 1016.6 |
| 20260504033405 | 46 | 171 | 0.9 | 0.9 | 0.00 | 0.00 | 0.00 | 63 | 1016.6 |
| 20260504032925 | 47 | 213 | 0.9 | 1.7 | 0.00 | 0.00 | 0.00 | 61 | 1016.6 |
| 20260504032404 | 47 | 213 | 0.9 | 1.7 | 0.00 | 0.00 | 0.00 | 61 | 1016.6 |
| 20260504031902 | 47 | 0.0 | 0.9 | 0.00 | 0.00 | 0.00 | 59 | 1016.6 | |
| 20260504031403 | 47 | 0.0 | 0.9 | 0.00 | 0.00 | 0.00 | 59 | 1016.6 | |
| 20260504030900 | 48 | 0.0 | 0.9 | 0.00 | 0.00 | 0.00 | 58 | 1016.6 | |
| 20260504030358 | 48 | 0.0 | 0.9 | 0.00 | 0.00 | 0.00 | 58 | 1016.6 | |
| 20260504025918 | 48 | 0.0 | 0.9 | 0.00 | 0.00 | 0.00 | 58 | 1016.6 | |
| 20260504025357 | 48 | 192 | 0.9 | 0.9 | 0.00 | 0.00 | 0.00 | 58 | 1016.7 |
| 20260504024856 | 48 | 192 | 0.9 | 0.9 | 0.00 | 0.00 | 0.00 | 58 | 1016.7 |
| 20260504024355 | 48 | 194 | 0.9 | 0.9 | 0.00 | 0.00 | 0.00 | 56 | 1016.8 |
| 20260504023915 | 48 | 194 | 0.9 | 0.9 | 0.00 | 0.00 | 0.00 | 56 | 1016.8 |
| 20260504023353 | 49 | 204 | 0.9 | 1.7 | 0.00 | 0.00 | 0.00 | 57 | 1016.6 |
| 20260504022851 | 49 | 204 | 0.9 | 1.7 | 0.00 | 0.00 | 0.00 | 57 | 1016.6 |
| 20260504022351 | 49 | 180 | 0.9 | 1.7 | 0.00 | 0.00 | 0.00 | 56 | 1016.5 |
| 20260504021850 | 49 | 180 | 0.9 | 1.7 | 0.00 | 0.00 | 0.00 | 56 | 1016.5 |
| 20260504021351 | 49 | 187 | 0.9 | 1.7 | 0.00 | 0.00 | 0.00 | 56 | 1016.4 |
| 20260504020850 | 49 | 187 | 0.9 | 1.7 | 0.00 | 0.00 | 0.00 | 56 | 1016.4 |
| 20260504020347 | 49 | 176 | 0.9 | 1.7 | 0.00 | 0.00 | 0.00 | 56 | 1016.3 |
| 20260504015846 | 49 | 176 | 0.9 | 1.7 | 0.00 | 0.00 | 0.00 | 56 | 1016.3 |
| 20260504015345 | 50 | 210 | 0.9 | 1.7 | 0.00 | 0.00 | 0.00 | 57 | 1016.3 |
| 20260504014845 | 50 | 210 | 0.9 | 1.7 | 0.00 | 0.00 | 0.00 | 57 | 1016.3 |
| 20260504014342 | 50 | 190 | 0.9 | 0.9 | 0.00 | 0.00 | 0.00 | 55 | 1016.0 |
| 20260504013842 | 50 | 190 | 0.9 | 0.9 | 0.00 | 0.00 | 0.00 | 55 | 1016.0 |
| 20260504013341 | 51 | 209 | 0.9 | 0.9 | 0.00 | 0.00 | 0.00 | 54 | 1016.0 |
| 20260504012840 | 51 | 209 | 0.9 | 0.9 | 0.00 | 0.00 | 0.00 | 54 | 1016.0 |
| 20260504012340 | 51 | 206 | 0.9 | 0.9 | 0.00 | 0.00 | 0.00 | 55 | 1015.9 |
| 20260504011837 | 51 | 206 | 0.9 | 0.9 | 0.00 | 0.00 | 0.00 | 55 | 1015.9 |
| 20260504011337 | 52 | 0.0 | 0.9 | 0.00 | 0.00 | 0.00 | 54 | 1015.9 | |
| 20260504010836 | 52 | 0.0 | 0.9 | 0.00 | 0.00 | 0.00 | 54 | 1015.9 | |
| 20260504010335 | 53 | 194 | 0.9 | 1.7 | 0.00 | 0.00 | 0.00 | 52 | 1015.8 |
| 20260504005854 | 53 | 194 | 0.9 | 1.7 | 0.00 | 0.00 | 0.00 | 52 | 1015.8 |
| 20260504005333 | 54 | 194 | 0.9 | 0.9 | 0.00 | 0.00 | 0.00 | 50 | 1015.6 |
| 20260504004833 | 54 | 194 | 0.9 | 0.9 | 0.00 | 0.00 | 0.00 | 50 | 1015.6 |
| 20260504004331 | 55 | 0.0 | 0.9 | 0.00 | 0.00 | 0.00 | 49 | 1015.5 | |
| 20260504003832 | 55 | 0.0 | 0.9 | 0.00 | 0.00 | 0.00 | 49 | 1015.5 | |
| 20260504003329 | 56 | 0.0 | 0.9 | 0.00 | 0.00 | 0.00 | 45 | 1015.4 | |
| 20260504002849 | 56 | 0.0 | 0.9 | 0.00 | 0.00 | 0.00 | 45 | 1015.4 | |
| 20260504002327 | 58 | 206 | 0.9 | 0.9 | 0.00 | 0.00 | 0.00 | 43 | 1015.5 |
| 20260504001828 | 58 | 206 | 0.9 | 0.9 | 0.00 | 0.00 | 0.00 | 43 | 1015.5 |
| 20260504001325 | 59 | 0.0 | 0.9 | 0.00 | 0.00 | 0.00 | 40 | 1015.6 | |
| 20260504000824 | 59 | 0.0 | 0.9 | 0.00 | 0.00 | 0.00 | 40 | 1015.6 | |
| 20260504000343 | 60 | 0.0 | 0.9 | 0.00 | 0.00 | 0.00 | 38 | 1015.5 | |
| 20260503235824 | 60 | 0.0 | 0.9 | 0.00 | 0.00 | 0.00 | 38 | 1015.5 | |
| 20260503235321 | 60 | 0.0 | 0.9 | 0.00 | 0.00 | 0.00 | 38 | 1015.5 | |
| 20260503234822 | 60 | 0.0 | 0.9 | 0.00 | 0.00 | 0.00 | 38 | 1015.5 | |
| 20260503234319 | 61 | 26 | 0.9 | 0.9 | 0.00 | 0.00 | 0.00 | 38 | 1015.4 |
| 20260503233818 | 61 | 26 | 0.9 | 0.9 | 0.00 | 0.00 | 0.00 | 38 | 1015.4 |
| 20260503233318 | 62 | 0.0 | 0.9 | 0.00 | 0.00 | 0.00 | 37 | 1015.4 | |
| 20260503232816 | 62 | 0.0 | 0.9 | 0.00 | 0.00 | 0.00 | 37 | 1015.4 | |
| 20260503232335 | 62 | 348 | 0.9 | 0.9 | 0.00 | 0.00 | 0.00 | 36 | 1015.2 |
| 20260503231814 | 62 | 348 | 0.9 | 0.9 | 0.00 | 0.00 | 0.00 | 36 | 1015.2 |
| 20260503231312 | 63 | 45 | 0.9 | 2.6 | 0.00 | 0.00 | 0.00 | 36 | 1015.1 |
| 20260503230813 | 63 | 45 | 0.9 | 2.6 | 0.00 | 0.00 | 0.00 | 36 | 1015.1 |
| 20260503230333 | 64 | 323 | 0.9 | 1.7 | 0.00 | 0.00 | 0.00 | 35 | 1015.3 |
| 20260503225810 | 64 | 323 | 0.9 | 1.7 | 0.00 | 0.00 | 0.00 | 35 | 1015.3 |
| 20260503225311 | 64 | 270 | 0.9 | 1.7 | 0.00 | 0.00 | 0.00 | 36 | 1015.3 |
| 20260503224809 | 64 | 270 | 0.9 | 1.7 | 0.00 | 0.00 | 0.00 | 36 | 1015.3 |
| 20260503224309 | 64 | 0 | 0.9 | 1.7 | 0.00 | 0.00 | 0.00 | 35 | 1015.4 |
| 20260503223805 | 64 | 0 | 0.9 | 1.7 | 0.00 | 0.00 | 0.00 | 35 | 1015.4 |
| 20260503223305 | 64 | 270 | 0.9 | 1.7 | 0.00 | 0.00 | 0.00 | 35 | 1015.4 |
| 20260503222805 | 64 | 270 | 0.9 | 1.7 | 0.00 | 0.00 | 0.00 | 35 | 1015.4 |
| 20260503222305 | 64 | 239 | 0.9 | 1.7 | 0.00 | 0.00 | 0.00 | 35 | 1015.5 |
| 20260503221802 | 64 | 239 | 0.9 | 1.7 | 0.00 | 0.00 | 0.00 | 35 | 1015.5 |
| 20260503221303 | 64 | 270 | 0.9 | 2.6 | 0.00 | 0.00 | 0.00 | 35 | 1015.5 |
| 20260503220800 | 64 | 270 | 0.9 | 2.6 | 0.00 | 0.00 | 0.00 | 35 | 1015.5 |
| 20260503220259 | 64 | 333 | 0.9 | 0.9 | 0.00 | 0.00 | 0.00 | 35 | 1015.5 |
| 20260503215757 | 64 | 333 | 0.9 | 0.9 | 0.00 | 0.00 | 0.00 | 35 | 1015.5 |
| 20260503215257 | 64 | 270 | 0.9 | 2.6 | 0.00 | 0.00 | 0.00 | 34 | 1015.7 |
| 20260503214757 | 64 | 270 | 0.9 | 2.6 | 0.00 | 0.00 | 0.00 | 34 | 1015.7 |
| 20260503214255 | 64 | 255 | 0.9 | 3.5 | 0.00 | 0.00 | 0.00 | 35 | 1015.8 |
| 20260503213754 | 64 | 255 | 0.9 | 3.5 | 0.00 | 0.00 | 0.00 | 35 | 1015.8 |
| 20260503213253 | 65 | 303 | 0.9 | 3.5 | 0.00 | 0.00 | 0.00 | 34 | 1015.8 |
| 20260503212752 | 65 | 303 | 0.9 | 3.5 | 0.00 | 0.00 | 0.00 | 34 | 1015.8 |
| 20260503212251 | 66 | 270 | 0.9 | 2.6 | 0.00 | 0.00 | 0.00 | 34 | 1015.8 |
| 20260503211749 | 66 | 270 | 0.9 | 2.6 | 0.00 | 0.00 | 0.00 | 34 | 1015.8 |
| 20260503211250 | 66 | 254 | 0.9 | 3.5 | 0.00 | 0.00 | 0.00 | 33 | 1016.0 |
| 20260503210748 | 66 | 254 | 0.9 | 3.5 | 0.00 | 0.00 | 0.00 | 33 | 1016.0 |
| 20260503210247 | 67 | 327 | 0.9 | 3.5 | 0.00 | 0.00 | 0.00 | 33 | 1015.9 |
| 20260503205807 | 67 | 327 | 0.9 | 3.5 | 0.00 | 0.00 | 0.00 | 33 | 1015.9 |
| 20260503205305 | 68 | 315 | 0.9 | 3.5 | 0.00 | 0.00 | 0.00 | 32 | 1016.2 |
| 20260503204746 | 68 | 315 | 0.9 | 3.5 | 0.00 | 0.00 | 0.00 | 32 | 1016.2 |
| 20260503204304 | 67 | 321 | 0.9 | 2.6 | 0.00 | 0.00 | 0.00 | 33 | 1016.2 |
| 20260503203742 | 67 | 321 | 0.9 | 2.6 | 0.00 | 0.00 | 0.00 | 33 | 1016.2 |
| 20260503203241 | 68 | 270 | 0.9 | 3.5 | 0.00 | 0.00 | 0.00 | 33 | 1016.4 |
| 20260503202740 | 68 | 270 | 0.9 | 3.5 | 0.00 | 0.00 | 0.00 | 33 | 1016.4 |
| 20260503202239 | 67 | 323 | 0.9 | 2.6 | 0.00 | 0.00 | 0.00 | 33 | 1016.4 |
| 20260503201738 | 67 | 323 | 0.9 | 2.6 | 0.00 | 0.00 | 0.00 | 33 | 1016.4 |
| 20260503201238 | 67 | 270 | 0.9 | 3.5 | 0.00 | 0.00 | 0.00 | 34 | 1016.7 |
| 20260503200817 | 67 | 270 | 0.9 | 3.5 | 0.00 | 0.00 | 0.00 | 34 | 1016.7 |
| 20260503200234 | 67 | 270 | 0.9 | 2.6 | 0.00 | 0.00 | 0.00 | 35 | 1016.8 |
| 20260503195734 | 67 | 270 | 0.9 | 2.6 | 0.00 | 0.00 | 0.00 | 35 | 1016.8 |
| 20260503195234 | 67 | 311 | 0.9 | 5.2 | 0.00 | 0.00 | 0.00 | 34 | 1017.0 |
| 20260503194732 | 67 | 311 | 0.9 | 5.2 | 0.00 | 0.00 | 0.00 | 34 | 1017.0 |
| 20260503194230 | 67 | 208 | 0.9 | 3.5 | 0.00 | 0.00 | 0.00 | 36 | 1017.1 |
| 20260503193731 | 67 | 208 | 0.9 | 3.5 | 0.00 | 0.00 | 0.00 | 36 | 1017.1 |
| 20260503193229 | 67 | 248 | 0.9 | 3.5 | 0.00 | 0.00 | 0.00 | 36 | 1017.3 |
| 20260503192730 | 67 | 248 | 0.9 | 3.5 | 0.00 | 0.00 | 0.00 | 36 | 1017.3 |
| 20260503192227 | 66 | 315 | 0.9 | 3.5 | 0.00 | 0.00 | 0.00 | 35 | 1017.3 |
| 20260503191726 | 66 | 315 | 0.9 | 3.5 | 0.00 | 0.00 | 0.00 | 35 | 1017.3 |
| 20260503191226 | 65 | 255 | 1.7 | 5.2 | 0.00 | 0.00 | 0.00 | 37 | 1017.5 |
| 20260503190725 | 65 | 255 | 1.7 | 5.2 | 0.00 | 0.00 | 0.00 | 37 | 1017.5 |
| 20260503190304 | 65 | 270 | 0.9 | 4.3 | 0.00 | 0.00 | 0.00 | 36 | 1017.6 |
| 20260503185722 | 65 | 270 | 0.9 | 4.3 | 0.00 | 0.00 | 0.00 | 36 | 1017.6 |
| 20260503185221 | 65 | 315 | 0.9 | 2.6 | 0.00 | 0.00 | 0.00 | 38 | 1017.9 |
| 20260503184721 | 65 | 315 | 0.9 | 2.6 | 0.00 | 0.00 | 0.00 | 38 | 1017.9 |
| 20260503184219 | 66 | 315 | 0.9 | 1.7 | 0.00 | 0.00 | 0.00 | 37 | 1018.0 |
| 20260503183720 | 66 | 315 | 0.9 | 1.7 | 0.00 | 0.00 | 0.00 | 37 | 1018.0 |
| 20260503183217 | 65 | 270 | 0.9 | 2.6 | 0.00 | 0.00 | 0.00 | 39 | 1018.2 |
| 20260503182716 | 65 | 270 | 0.9 | 2.6 | 0.00 | 0.00 | 0.00 | 39 | 1018.2 |
| 20260503182216 | 64 | 315 | 0.9 | 3.5 | 0.00 | 0.00 | 0.00 | 38 | 1018.3 |
| 20260503181733 | 64 | 315 | 0.9 | 3.5 | 0.00 | 0.00 | 0.00 | 38 | 1018.3 |
| 20260503181214 | 64 | 231 | 0.9 | 3.5 | 0.00 | 0.00 | 0.00 | 39 | 1018.3 |
| 20260503180713 | 64 | 231 | 0.9 | 3.5 | 0.00 | 0.00 | 0.00 | 39 | 1018.3 |
| 20260503180231 | 63 | 171 | 0.9 | 3.5 | 0.00 | 0.00 | 0.00 | 38 | 1018.4 |
| 20260503175730 | 63 | 171 | 0.9 | 3.5 | 0.00 | 0.00 | 0.00 | 38 | 1018.4 |
| 20260503175209 | 63 | 187 | 0.9 | 4.3 | 0.00 | 0.00 | 0.00 | 40 | 1018.5 |
| 20260503174708 | 63 | 187 | 0.9 | 4.3 | 0.00 | 0.00 | 0.00 | 40 | 1018.5 |
| 20260503174207 | 63 | 228 | 0.9 | 5.2 | 0.00 | 0.00 | 0.00 | 41 | 1018.8 |
| 20260503173708 | 63 | 228 | 0.9 | 5.2 | 0.00 | 0.00 | 0.00 | 41 | 1018.8 |
| 20260503173206 | 61 | 315 | 0.9 | 1.7 | 0.00 | 0.00 | 0.00 | 42 | 1018.8 |
| 20260503172746 | 61 | 315 | 0.9 | 1.7 | 0.00 | 0.00 | 0.00 | 42 | 1018.8 |
| 20260503172204 | 61 | 215 | 0.9 | 5.2 | 0.00 | 0.00 | 0.00 | 40 | 1019.0 |
| 20260503171703 | 61 | 215 | 0.9 | 5.2 | 0.00 | 0.00 | 0.00 | 40 | 1019.0 |
| 20260503171201 | 60 | 302 | 0.9 | 3.5 | 0.00 | 0.00 | 0.00 | 42 | 1019.2 |
| 20260503170702 | 60 | 302 | 0.9 | 3.5 | 0.00 | 0.00 | 0.00 | 42 | 1019.2 |
| 20260503170159 | 59 | 315 | 0.9 | 3.5 | 0.00 | 0.00 | 0.00 | 40 | 1019.4 |
| 20260503160207 | 57 | 331 | 0.9 | 4.3 | 0.00 | 0.00 | 0.00 | 44 | 1019.8 |
| 20260503150637 | 51 | 270 | 0.9 | 3.5 | 0.00 | 0.00 | 0.00 | 51 | 1020.0 |
| 20260503150136 | 50 | 332 | 0.9 | 2.6 | 0.00 | 0.00 | 0.00 | 51 | 1020.3 |
| 20260503140123 | 49 | 270 | 0.9 | 2.6 | 0.00 | 0.00 | 0.00 | 52 | 1020.1 |
| 20260503130210 | 47 | 325 | 0.9 | 1.7 | 0.00 | 0.00 | 0.00 | 56 | 1019.8 |